Location: Quedlinburg
(51.7921°N, 11.1414°E)
Time: 04:00:31
(UTC+02:00)

STRAND 1 - Pass Details

Date: 17 March 2026
Orbit: 761 x 775 km, 98.4° (Epoch: 16 April)

Event Time Altitude Azimuth Distance (km) Brightness Sun altitude
Rises 04:48:31 0° 157° (SSE) 3,236 ? -15.6°
Reaches altitude 10° 04:50:50 10° 155° (SSE) 2,312 ? -15.2°
Maximum altitude 04:55:55 73° 71° (ENE) 807 ? -14.5°
Drops below altitude 10° 05:01:00 10° 348° (NNW) 2,319 ? -13.7°
Sets 05:03:19 0° 347° (NNW) 3,248 ? -13.4°
